Regional Weather Roundup
Issued by NWS

Home | Current Version | Previous Version | Text Only | Print | Product List | Glossary On
Versions: 1 2 3 4 5 6 7 8 9 10 11 12 13 14 15 16 17 18 19 20 21 22 23 24 25 26 27 28 29 30 31 32 33 34 35 36 37 38 39 40 41 42 43 44 45 46 47 48 49 50
000
ASUS42 KTBW 221110
RWRFL
FLORIDA REGIONAL WEATHER ROUNDUP
NATIONAL WEATHER SERVICE TAMPA BAY RUSKIN FL
700 AM EDT TUE JUL 22 2014

NOTE: "FAIR" INDICATES FEW OR NO CLOUDS BELOW 12,000 FEET WITH NO
SIGNIFICANT WEATHER AND/OR OBSTRUCTIONS TO VISIBILITY.


FLZ001>010-012>015-112-114-115-221200-
PANHANDLE FLORIDA

CITY           SKY/WX    TMP DP  RH WIND       PRES   REMARKS
PENSACOLA      PTCLDY    75  74  96 CALM      30.01R
PENSACOLA NAS  MOCLDY    77  75  93 S5        30.00R
MILTON NAS     FOG       76  74  93 E6        30.02R VSB 1/2
CRESTVIEW      CLOUDY    74  74 100 E6        30.05R FOG
DUKE FIELD     CLOUDY    74  74 100 E5        30.03R FOG
VALPARAISO     MOCLDY    76  74  95 E5        30.02R
MARY ESTHER    LGT RAIN  77  70  78 NE6       30.01R
TRI COUNTY     PTSUNNY   71  70  96 CALM      30.06R
PANAMA CITY    FAIR      72  70  93 CALM      30.03R
TYNDALL AFB    MOCLDY    74  73  96 SE2       30.04R
APALACHICOLA   CLEAR     72  69  90 CALM      30.03R

STATION/POSITION SKY/WX   TEMP    WIND        PRES    WAVE   SWELL
                          AIR SEA DIR/SP/G            HT/PER HT/PER
                          (F)     (DEG/KT/KT) (MB)    (FT/S) (FT/S)
30.1N   87.6W              82 82  230/  8/ 10 1015.9R   2/ 5   2/ 5
29.2N   88.2W              82 83  280/  4/  6 1016.2
28.8N   86.0W              81 82  160/ 10/ 10 1016.4    1/ 4
PANAMA CITY BEAC           78 81  130/ 11/ 12 1016.5R
CAPE SAN BLAS    NOT AVBL
TOWER C                    80     160/  5/  6 1017.1R
28.5N   84.5W              82 83  170/  4/  4 1016.9R   1/ 5   2/ 5

$$
FLZ011-016>038-118-127-128-134-139-239-221200-
NORTH FLORIDA

CITY           SKY/WX    TMP DP  RH WIND       PRES   REMARKS
MARIANNA       CLEAR     73  73 100 SE3       30.04R
TALLAHASSEE    PTCLDY    73  69  87 CALM      30.06R
CROSS CITY       N/A     73  71  93 CALM      30.05R
GAINESVILLE    PTCLDY    70  69  97 CALM      30.05S
MAYPORT NAS    PTCLDY    76  73  91 VRB3      30.06R
JACKSONVILLE   MOCLDY    73  72  96 CALM      30.06R
JAX NAS        MOCLDY    78  72  81 CALM      30.07R
JAX CRAIG      PTCLDY    73  71  93 CALM      30.06R
JAX CECIL      CLEAR     72  72 100 CALM      30.06R
FERNANDINA BEA FAIR      73  72  94 CALM      30.05R
ST AUGUSTINE   PTCLDY    72  70  93 NW3       30.06R FOG

STATION/POSITION SKY/WX   TEMP    WIND        PRES    WAVE   SWELL
                          AIR SEA DIR/SP/G            HT/PER HT/PER
                          (F)     (DEG/KT/KT) (MB)    (FT/S) (FT/S)
SHELL POINT      NOT AVBL
KEATON BEACH               72      50/  2/  3 1017.8R
CEDAR KEY                  76      70/  9/ 10 1017.5R
FERNANDINA                 76 84  280/  2/  2 1017.3R
30.7N   81.3W                 83                N/A     2/ 8
MAYPORT                    76 84  310/  3/  4   N/A
31.4N   80.9W              80 83  260/  4/  6 1018.1R   2/ 9   2/ 9
ST AUGUSTINE               77     350/  4/  5 1018.1R

$$
FLZ040-043>046-052-053-057-058-063-144-221200-
INTERIOR CENTRAL FLORIDA

CITY           SKY/WX    TMP DP  RH WIND       PRES   REMARKS
OCALA          PTCLDY    73  72  94 CALM      30.06R
LEESBURG       CLEAR     74  72  93 NE3       30.05R
SANFORD        CLEAR     75  75 100 SE3       30.04R
ORLANDO EXEC   CLEAR     75  74  96 CALM      30.04R
ORLANDO INTL   PTCLDY    74  73  97 E3        30.05R
KISSIMMEE      CLEAR     75  75 100 CALM      30.04
WINTER HAVEN   MOCLDY    75  73  93 NE3       30.06R
LAKELAND       PTCLDY    73  73 100 E3        30.05R
BARTOW         FAIR      72 N/A N/A CALM      30.06R

$$
FLZ041-047-054-059-064-141-147-221200-
EAST CENTRAL FLORIDA

CITY           SKY/WX    TMP DP  RH WIND       PRES   REMARKS
ORMOND BEACH   PTCLDY    72  72 100 CALM      30.04  FOG
DAYTONA BEACH  PTCLDY    74  73  97 CALM      30.04R
DELAND         SUNNY     73  72  94 CALM      30.05R
NEW SMYRNA BEA PTCLDY    75  73  94 CALM      30.05
JFK SPACE CTR  PTCLDY    75  75 100 E1        30.03R
TITUSVILLE     PTCLDY    73  73 100 CALM      30.04
CAPE CANAVERAL PTCLDY    75  74  96 CALM      30.03R
PATRICK AFB    PTCLDY    80  77  91 SE1       30.03R
MELBOURNE      PTCLDY    76  74  93 CALM      30.03R
VERO BEACH     CLEAR     73  73 100 W5        30.03R
FT PIERCE      CLEAR     74  72  93 CALM      30.03R
STUART         PTCLDY    75  73  94 CALM      30.03S

STATION/POSITION SKY/WX   TEMP    WIND        PRES    WAVE   SWELL
                          AIR SEA DIR/SP/G            HT/PER HT/PER
                          (F)     (DEG/KT/KT) (MB)    (FT/S) (FT/S)
28.5N   80.2W              81 84  210/  4/ 10 1017.0R
28.9N   78.5W              82 83  140/ 16/ 17 1017.4R   5/ 5   2/ 8
TRIDENT PIER               76 86   70/  3/  5 1016.1F
28.4N   80.5W                 84                N/A     2/ 8
27.6N   80.2W                 83                N/A     2/ 8

$$
FLZ050-056-061-142-242-148-248-149-249-151-251-155-255-
160-260-221200-
WEST CENTRAL FLORIDA

CITY           SKY/WX    TMP DP  RH WIND       PRES   REMARKS
CRYSTAL RIVER  CLOUDY    72  72 100 CALM      30.05R
INVERNESS      PTSUNNY   72  70  94 CALM      30.06R FOG
BROOKSVILLE    CLOUDY    73  71  93 CALM      30.06R
ZEPHYRHILLS    FOG       66  66 100 CALM      30.06R VSB 1/2
CLEARWATER     CLEAR     75  73  93 E3        30.04R
TAMPA INTL     PTCLDY    75  71  87 CALM      30.05R
TAMPA EXEC     CLEAR     73  70  88 CALM      30.05R FOG
PLANT CITY     CLEAR     73 N/A N/A MISG      30.07R HAZE
MACDILL AFB    CLEAR     73  73 100 NE2       30.04R
ST PETERSBURG  CLEAR     78  75  90 SE5       30.02R
SARASOTA       CLEAR     74  71  91 SE5       30.02R
VENICE         FAIR      73  72  94 N5        30.04R

STATION/POSITION SKY/WX   TEMP    WIND        PRES    WAVE   SWELL
                          AIR SEA DIR/SP/G            HT/PER HT/PER
                          (F)     (DEG/KT/KT) (MB)    (FT/S) (FT/S)
CEDAR KEY                  76      70/  9/ 10 1017.5R
28.5N   84.5W              82 83  170/  4/  4 1016.9R   1/ 5   2/ 5
27.3N   84.3W                 85                N/A     1/ 3
CLEARWATER BEACH           77 87   90/  3/  4 1016.6R
MIDDLE TAMPA BAY           76     150/  8/  9 1017.1R
VENICE                     74 88   10/  4/  5 1016.7R

$$
FLZ066-069-070-075>078-162-262-165-265-221200-
SOUTHWEST FLORIDA AND KEYS

CITY           SKY/WX    TMP DP  RH WIND       PRES   REMARKS
PUNTA GORDA    PTCLDY    76  74  93 E5        30.05R
FT MYERS       CLEAR     75  74  96 CALM      30.02R
SOUTHWEST INTL CLEAR     74  72  93 E3        30.02R
NAPLES         CLEAR     76  76 100 E6        30.01S
MARATHON       CLOUDY    84  76  76 VRB3      30.01R
KEY WEST NAS   TSTM      79  69  71 W5G21     30.02R
KEY WEST INTL  PTCLDY    84  75  74 SE15      30.02R THUNDER

STATION/POSITION SKY/WX   TEMP    WIND        PRES    WAVE   SWELL
                          AIR SEA DIR/SP/G            HT/PER HT/PER
                          (F)     (DEG/KT/KT) (MB)    (FT/S) (FT/S)
VENICE                     74 88   10/  4/  5 1016.7R
NAPLES                     76 92  100/  4/  6 1016.9R
DRY TORTUGAS               82     160/  3/  4 1016.2R
SAND KEY                   83     160/ 12/ 13 1016.3R
SOMBRERO KEY               84     150/ 11/ 12 1017.0R
LONG KEY                   84 88  150/  8/ 10 1016.6R
MOLASSES REEF              84 86  170/  8/ 10 1016.5R

$$
FLZ067-068-071>074-168-172>174-221200-
SOUTHEAST FLORIDA

CITY           SKY/WX    TMP DP  RH WIND       PRES   REMARKS
W PALM BEACH   MOCLDY    77  75  93 CALM      30.02R
FT LAUDER-EXEC PTCLDY    78  78 100 CALM      30.02R
FT LAUDERDALE  MOCLDY    80  77  90 CALM      30.02R
POMPANO BEACH    N/A     79  75  87 CALM      30.03R
PEMBROKE PINES MOCLDY    77  76  96 CALM      30.04R
OPA LOCKA        N/A     78  75  90 CALM      30.03R
MIAMI          CLOUDY    79  76  90 NW5       30.03R
WEST KENDALL   LGT RAIN  77  74  90 CALM      30.03R
HOMESTEAD      PTCLDY    76  75  96 CALM      30.03R

STATION/POSITION SKY/WX   TEMP    WIND        PRES    WAVE   SWELL
                          AIR SEA DIR/SP/G            HT/PER HT/PER
                          (F)     (DEG/KT/KT) (MB)    (FT/S) (FT/S)
PORT EVERGLADES            82     280/  4/  5 1016.6
VIRGINIA KEY               83 86  160/  3/  5   N/A
LAKE WORTH                 79 84              1016.4R
FOWEY ROCKS                83 84  130/  7/  8 1017.0R
SETTLEMENT POINT           81     130/  7/  8 1017.6R

$$



USA.gov is the U.S. government's official web portal to all federal, state and local government web resources and services.